Time,TemperatureF,DewpointF,PressureIn,WindDirection,WindDirectionDegrees,WindSpeedMPH,WindSpeedGustMPH,Humidity,HourlyPrecipIn,Conditions,Clouds,dailyrainin,SoftwareType,DateUTC
2013-01-06 08:40:00,38.6,1.0,29.83,North,8,0.0,0.0,20,0.00,,,0.00,vanprod-2.3,2013-01-06 15:40:00,
2013-01-06 09:04:00,39.2,2.6,30.09,North,8,0.0,0.0,21,0.00,,,0.00,vanprod-2.3,2013-01-06 16:04:00,
2013-01-06 09:16:00,38.9,2.3,30.10,North,9,0.0,0.0,21,0.00,,,0.00,vanprod-2.3,2013-01-06 16:16:00,
2013-01-06 09:26:00,39.9,2.1,30.09,North,10,0.0,0.0,20,0.00,,,0.00,vanprod-2.3,2013-01-06 16:26:00,
2013-01-06 09:30:00,40.2,2.3,30.09,North,10,0.0,0.0,20,0.00,,,0.00,vanprod-2.3,2013-01-06 16:30:00,
2013-01-06 09:36:00,40.5,3.7,30.07,North,10,0.0,0.0,21,0.00,,,0.00,vanprod-2.3,2013-01-06 16:36:00,
2013-01-06 09:42:00,40.6,2.7,30.07,North,10,0.0,0.0,20,0.00,,,0.00,vanprod-2.3,2013-01-06 16:42:00,
2013-01-06 09:48:00,40.9,2.9,30.07,North,10,3.0,6.0,20,0.00,,,0.00,vanprod-2.3,2013-01-06 16:48:00,
2013-01-06 09:54:00,42.6,4.4,30.04,North,10,0.0,0.0,20,0.00,,,0.00,vanprod-2.3,2013-01-06 16:54:00,
2013-01-06 10:00:00,44.9,1.4,30.02,North,10,8.0,12.0,16,0.00,,,0.00,vanprod-2.3,2013-01-06 17:00:00,
2013-01-06 10:06:00,46.8,1.6,29.99,North,10,1.0,3.0,15,0.00,,,0.00,vanprod-2.3,2013-01-06 17:06:00,
2013-01-06 10:12:00,47.6,2.2,29.99,North,10,6.0,13.0,15,0.00,,,0.00,vanprod-2.3,2013-01-06 17:12:00,
2013-01-06 10:18:00,48.0,2.6,29.98,North,10,9.0,17.0,15,0.00,,,0.00,vanprod-2.3,2013-01-06 17:18:00,
2013-01-06 10:24:00,48.3,2.8,29.97,North,10,9.0,13.0,15,0.00,,,0.00,vanprod-2.3,2013-01-06 17:24:00,
2013-01-06 10:30:00,48.5,3.0,29.96,North,10,4.0,8.0,15,0.00,,,0.00,vanprod-2.3,2013-01-06 17:30:00,
2013-01-06 10:36:00,48.5,5.7,29.96,North,10,8.0,13.0,17,0.00,,,0.00,vanprod-2.3,2013-01-06 17:36:00,
2013-01-06 10:42:00,48.8,3.2,29.95,North,10,5.0,11.0,15,0.00,,,0.00,vanprod-2.3,2013-01-06 17:42:00,
2013-01-06 10:48:00,49.4,2.2,29.94,North,10,2.0,8.0,14,0.00,,,0.00,vanprod-2.3,2013-01-06 17:48:00,
2013-01-06 10:54:00,49.5,3.8,29.93,North,10,9.0,12.0,15,0.00,,,0.00,vanprod-2.3,2013-01-06 17:54:00,
2013-01-06 11:00:00,50.1,2.8,29.93,North,10,6.0,13.0,14,0.00,,,0.00,vanprod-2.3,2013-01-06 18:00:00,
2013-01-06 11:06:00,50.5,3.1,29.93,North,10,3.0,9.0,14,0.00,,,0.00,vanprod-2.3,2013-01-06 18:06:00,
2013-01-06 11:12:00,50.4,5.9,29.92,North,8,12.0,12.0,16,0.00,,,0.00,vanprod-2.3,2013-01-06 18:12:00,
2013-01-06 11:17:00,50.4,5.9,29.91,North,8,12.0,12.0,16,0.00,,,0.00,vanprod-2.3,2013-01-06 18:17:00,
2013-01-06 11:38:00,49.1,3.5,29.92,North,10,9.0,16.0,15,0.00,,,0.00,vanprod-2.3,2013-01-06 18:38:00,
2013-01-06 11:44:00,48.9,3.3,29.91,North,10,13.0,24.0,15,0.00,,,0.00,vanprod-2.3,2013-01-06 18:44:00,
2013-01-06 11:50:00,49.4,5.1,29.91,North,10,9.0,18.0,16,0.00,,,0.00,vanprod-2.3,2013-01-06 18:50:00,
2013-01-06 11:56:00,50.1,5.7,29.89,North,10,11.0,17.0,16,0.00,,,0.00,vanprod-2.3,2013-01-06 18:56:00,
2013-01-06 12:02:00,50.4,4.5,29.88,North,10,14.0,24.0,15,0.00,,,0.00,vanprod-2.3,2013-01-06 19:02:00,
2013-01-06 12:08:00,50.2,5.8,29.88,North,10,15.0,21.0,16,0.00,,,0.00,vanprod-2.3,2013-01-06 19:08:00,
2013-01-06 12:14:00,50.4,5.9,29.87,North,10,16.0,21.0,16,0.00,,,0.00,vanprod-2.3,2013-01-06 19:14:00,
2013-01-06 12:20:00,51.0,6.4,29.85,North,10,8.0,18.0,16,0.00,,,0.00,vanprod-2.3,2013-01-06 19:20:00,
2013-01-06 12:26:00,50.8,4.8,29.84,North,10,17.0,24.0,15,0.00,,,0.00,vanprod-2.3,2013-01-06 19:26:00,
2013-01-06 12:32:00,51.0,5.0,29.84,North,10,12.0,20.0,15,0.00,,,0.00,vanprod-2.3,2013-01-06 19:32:00,
2013-01-06 12:38:00,51.1,5.1,29.84,North,10,17.0,26.0,15,0.00,,,0.00,vanprod-2.3,2013-01-06 19:38:00,
2013-01-06 12:54:00,50.7,7.5,29.84,North,10,6.0,19.0,17,0.00,,,0.00,vanprod-2.3,2013-01-06 19:54:00,
2013-01-06 13:00:00,51.1,7.8,29.84,North,10,11.0,18.0,17,0.00,,,0.00,vanprod-2.3,2013-01-06 20:00:00,
2013-01-06 13:06:00,51.0,7.7,29.84,North,10,11.0,17.0,17,0.00,,,0.00,vanprod-2.3,2013-01-06 20:06:00,
2013-01-06 13:12:00,50.8,7.6,29.84,North,10,2.0,14.0,17,0.00,,,0.00,vanprod-2.3,2013-01-06 20:12:00,
2013-01-06 13:16:00,50.8,7.6,29.84,North,10,10.0,16.0,17,0.00,,,0.00,vanprod-2.3,2013-01-06 20:16:00,
2013-01-06 13:22:00,50.8,7.6,29.83,North,10,13.0,18.0,17,0.00,,,0.00,vanprod-2.3,2013-01-06 20:22:00,
2013-01-06 13:28:00,50.4,7.2,29.83,North,10,1.0,26.0,17,0.00,,,0.00,vanprod-2.3,2013-01-06 20:28:00,
2013-01-06 13:34:00,50.8,8.8,29.83,North,10,10.0,13.0,18,0.00,,,0.00,vanprod-2.3,2013-01-06 20:34:00,
2013-01-06 13:40:00,50.4,7.2,29.84,North,10,11.0,17.0,17,0.00,,,0.00,vanprod-2.3,2013-01-06 20:40:00,
2013-01-06 13:46:00,50.1,7.0,29.83,North,10,9.0,19.0,17,0.00,,,0.00,vanprod-2.3,2013-01-06 20:46:00,
2013-01-06 13:52:00,50.7,8.8,29.81,North,10,13.0,21.0,18,0.00,,,0.00,vanprod-2.3,2013-01-06 20:52:00,
2013-01-06 13:58:00,50.2,7.1,29.82,North,10,7.0,24.0,17,0.00,,,0.00,vanprod-2.3,2013-01-06 20:58:00,
2013-01-06 14:04:00,49.8,8.0,29.82,North,10,13.0,19.0,18,0.00,,,0.00,vanprod-2.3,2013-01-06 21:04:00,
2013-01-06 14:10:00,49.5,7.8,29.82,North,10,10.0,17.0,18,0.00,,,0.00,vanprod-2.3,2013-01-06 21:10:00,
2013-01-06 14:16:00,49.8,8.0,29.82,North,10,10.0,17.0,18,0.00,,,0.00,vanprod-2.3,2013-01-06 21:16:00,
2013-01-06 14:22:00,49.6,6.6,29.82,North,10,10.0,20.0,17,0.00,,,0.00,vanprod-2.3,2013-01-06 21:22:00,
2013-01-06 14:28:00,49.4,7.7,29.83,North,10,9.0,13.0,18,0.00,,,0.00,vanprod-2.3,2013-01-06 21:28:00,
2013-01-06 14:34:00,49.9,6.8,29.81,North,10,10.0,14.0,17,0.00,,,0.00,vanprod-2.3,2013-01-06 21:34:00,
2013-01-06 14:40:00,50.5,7.3,29.81,North,10,5.0,13.0,17,0.00,,,0.00,vanprod-2.3,2013-01-06 21:40:00,
2013-01-06 14:46:00,49.9,5.5,29.80,North,10,12.0,24.0,16,0.00,,,0.00,vanprod-2.3,2013-01-06 21:46:00,
2013-01-06 14:52:00,49.6,5.3,29.80,North,10,10.0,22.0,16,0.00,,,0.00,vanprod-2.3,2013-01-06 21:52:00,
2013-01-06 14:58:00,49.8,6.8,29.80,North,10,5.0,18.0,17,0.00,,,0.00,vanprod-2.3,2013-01-06 21:58:00,
2013-01-06 15:04:00,49.6,5.3,29.80,North,10,15.0,18.0,16,0.00,,,0.00,vanprod-2.3,2013-01-06 22:04:00,
2013-01-06 15:10:00,49.6,6.6,29.80,North,10,6.0,13.0,17,0.00,,,0.00,vanprod-2.3,2013-01-06 22:10:00,
2013-01-06 15:16:00,49.4,7.7,29.80,North,10,13.0,16.0,18,0.00,,,0.00,vanprod-2.3,2013-01-06 22:16:00,
2013-01-06 15:22:00,49.1,8.6,29.81,North,8,5.0,19.0,19,0.00,,,0.00,vanprod-2.3,2013-01-06 22:22:00,
2013-01-06 15:28:00,49.1,9.8,29.81,North,8,9.0,9.0,20,0.00,,,0.00,vanprod-2.3,2013-01-06 22:28:00,
2013-01-06 15:34:00,49.1,9.8,29.81,North,8,9.0,9.0,20,0.00,,,0.00,vanprod-2.3,2013-01-06 22:34:00,